Reno - Stead, NV

3:19 PM PDT on April 28, 2017 (GMT -0700)
Reno - Stead

Weather History for KRTS - March, 2014

Change the Weather History Date:

Saturday, March 15, 2014

  Actual Average (KRNO) Record (KRNO)
Temperature  
Mean Temperature 44 °F -  
Max Temperature 64 °F 55 °F 76 °F (1934)
Min Temperature 23 °F 27 °F 11 °F (1944)
Degree Days  
Heating Degree Days 22    
Moisture  
Dew Point 18 °F    
Average Humidity 40    
Maximum Humidity 80    
Minimum Humidity 10    
Precipitation  
Precipitation 0.00 in - - ()
Sea Level Pressure  
Sea Level Pressure 30.42 in    
Wind  
Wind Speed 4 mph (ENE)    
Max Wind Speed 12 mph    
Max Gust Speed 17 mph    
Visibility 10 miles    
Events      
Averages and records for this station are not official NWS values.
T = Trace of Precipitation, MM = Missing Value Source: NWS Daily Summary

Daily Weather History Graph

Daily Weather History Graph

Search for Another Location

Airport or City:

Trip Planner

Search our weather history database for the weather conditions in past years. The results will help you decide how hot, cold, wet, or windy it might be!

Date:

Astronomy

Mar. 15, 2014 Rise Set
Actual Time 7:10 AM PDT 7:06 PM PDT
Civil Twilight 6:43 AM PDT 7:33 PM PDT
Nautical Twilight 6:12 AM PDT 8:04 PM PDT
Astronomical Twilight 5:41 AM PDT 8:36 PM PDT
Moon 6:30 PM PDT (3/15) 6:25 AM PDT (3/15)
Length of Visible Light 12h 49m
Length of Day
11h 55m
Waxing Gibbous, 99% of the Moon is Illuminated
Mar 15
Waxing Gibbous
Mar 16
Full
Mar 23
Last Quarter
Mar 30
New
Apr 7
First Quarter

Hourly Weather History & Observations

Time (PDT) Temp. Windchill Dew Point Humidity Pressure Visibility Wind Dir Wind Speed Gust Speed Precip Events Conditions
12:15 AM 39.2 °F - 24.8 °F 56% 30.37 in 10.0 mi Calm Calm - N/A   Overcast
12:35 AM 41.0 °F - 24.8 °F 53% 30.37 in 10.0 mi Calm Calm - N/A   Overcast
12:55 AM 39.2 °F 35.0 °F 24.8 °F 56% 30.37 in 10.0 mi North 5.8 mph - N/A   Overcast
1:15 AM 37.4 °F 32.1 °F 24.8 °F 60% 30.37 in 10.0 mi North 6.9 mph - N/A   Mostly Cloudy
1:35 AM 37.4 °F 32.1 °F 21.2 °F 52% 30.37 in 10.0 mi North 6.9 mph - N/A   Scattered Clouds
1:55 AM 35.6 °F 31.7 °F 21.2 °F 56% 30.38 in 10.0 mi NNW 4.6 mph - N/A   Clear
2:15 AM 33.8 °F 27.7 °F 21.2 °F 60% 30.38 in 10.0 mi North 6.9 mph - N/A   Clear
2:35 AM 33.8 °F 27.0 °F 19.4 °F 56% 30.39 in 10.0 mi North 8.1 mph - N/A   Clear
2:55 AM 32.0 °F 26.4 °F 19.4 °F 60% 30.39 in 10.0 mi North 5.8 mph - N/A   Clear
3:15 AM 32.0 °F 26.4 °F 21.2 °F 64% 30.39 in 10.0 mi North 5.8 mph - N/A   Clear
3:35 AM 35.6 °F 30.7 °F 21.2 °F 56% 30.39 in 10.0 mi North 5.8 mph - N/A   Clear
3:55 AM 32.0 °F 27.5 °F 23.0 °F 69% 30.39 in 10.0 mi South 4.6 mph - N/A   Clear
4:15 AM 32.0 °F - 19.4 °F 60% 30.40 in 10.0 mi Calm Calm - N/A   Clear
4:35 AM 28.4 °F 23.3 °F 17.6 °F 64% 30.41 in 10.0 mi NNW 4.6 mph - N/A   Clear
4:55 AM 28.4 °F 22.2 °F 19.4 °F 69% 30.41 in 10.0 mi North 5.8 mph - N/A   Clear
5:15 AM 28.4 °F 22.2 °F 19.4 °F 69% 30.41 in 10.0 mi North 5.8 mph - N/A   Clear
5:35 AM 32.0 °F - 21.2 °F 64% 30.42 in 10.0 mi Calm Calm - N/A   Clear
5:55 AM 32.0 °F - 23.0 °F 69% 30.42 in 10.0 mi Calm Calm - N/A   Clear
6:15 AM 30.2 °F - 19.4 °F 64% 30.42 in 10.0 mi Calm Calm - N/A   Clear
6:35 AM 24.8 °F 20.5 °F 15.8 °F 69% 30.42 in 10.0 mi NNW 3.5 mph - N/A   Clear
6:55 AM 23.0 °F 14.7 °F 15.8 °F 74% 30.43 in 10.0 mi NNW 6.9 mph - N/A   Clear
7:15 AM 26.6 °F 20.0 °F 17.6 °F 69% 30.43 in 10.0 mi North 5.8 mph - N/A   Clear
7:35 AM 26.6 °F - 19.4 °F 74% 30.44 in 10.0 mi Calm Calm - N/A   Clear
7:55 AM 26.6 °F - 19.4 °F 74% 30.44 in 10.0 mi Calm Calm - N/A   Clear
8:15 AM 28.4 °F - 23.0 °F 80% 30.44 in 10.0 mi Calm Calm - N/A   Clear
8:35 AM 32.0 °F - 21.2 °F 64% 30.45 in 10.0 mi Calm Calm - N/A   Clear
8:55 AM 35.6 °F - 21.2 °F 56% 30.45 in 10.0 mi Calm Calm - N/A   Clear
9:15 AM 39.2 °F - 23.0 °F 52% 30.45 in 10.0 mi Calm Calm - N/A   Clear
9:35 AM 42.8 °F - 23.0 °F 46% 30.45 in 10.0 mi Calm Calm - N/A   Clear
9:55 AM 46.4 °F 45.2 °F 23.0 °F 40% 30.45 in 10.0 mi SE 3.5 mph - N/A   Clear
10:15 AM 46.4 °F 45.2 °F 24.8 °F 43% 30.45 in 10.0 mi SE 3.5 mph - N/A   Clear
10:35 AM 48.2 °F - 24.8 °F 40% 30.46 in 10.0 mi East 5.8 mph - N/A   Clear
10:55 AM 50.0 °F - 24.8 °F 37% 30.45 in 10.0 mi ESE 6.9 mph - N/A   Clear
11:15 AM 51.8 °F - 23.0 °F 33% 30.45 in 10.0 mi SE 10.4 mph - N/A   Clear
11:35 AM 53.6 °F - 23.0 °F 30% 30.45 in 10.0 mi SE 5.8 mph - N/A   Clear
11:55 AM 55.4 °F - 23.0 °F 29% 30.45 in 10.0 mi SE 6.9 mph 16.1 mph N/A   Clear
12:15 PM 55.4 °F - 23.0 °F 29% 30.45 in 10.0 mi South 11.5 mph 17.3 mph N/A   Clear
12:35 PM 55.4 °F - 23.0 °F 29% 30.44 in 10.0 mi South 11.5 mph - N/A   Clear
12:55 PM 57.2 °F - 23.0 °F 27% 30.44 in 10.0 mi SE 6.9 mph - N/A   Clear
1:15 PM 57.2 °F - 17.6 °F 21% 30.43 in 10.0 mi ESE 10.4 mph - N/A   Clear
1:35 PM 59.0 °F - 17.6 °F 20% 30.42 in 10.0 mi SE 8.1 mph - N/A   Clear
1:55 PM 59.0 °F - 17.6 °F 20% 30.42 in 10.0 mi South 4.6 mph - N/A   Clear
2:15 PM 59.0 °F - 17.6 °F 20% 30.41 in 10.0 mi East 5.8 mph - N/A   Clear
2:35 PM 60.8 °F - 17.6 °F 19% 30.40 in 10.0 mi East 6.9 mph - N/A   Clear
2:55 PM 62.6 °F - 15.8 °F 16% 30.40 in 10.0 mi South 3.5 mph - N/A   Clear
3:15 PM 62.6 °F - 15.8 °F 16% 30.39 in 10.0 mi SE 5.8 mph - N/A   Clear
3:35 PM 62.6 °F - 14.0 °F 15% 30.40 in 10.0 mi ESE 5.8 mph - N/A   Clear
3:55 PM 62.6 °F - 12.2 °F 14% 30.39 in 10.0 mi SE 8.1 mph - N/A   Clear
4:15 PM 62.6 °F - 10.4 °F 13% 30.39 in 10.0 mi SE 3.5 mph - N/A   Clear
4:35 PM 62.6 °F - 8.6 °F 12% 30.39 in 10.0 mi SSE 5.8 mph - N/A   Clear
4:55 PM 62.6 °F - 10.4 °F 13% 30.39 in 10.0 mi Calm Calm - N/A   Clear
5:15 PM 64.4 °F - 6.8 °F 10% 30.39 in 10.0 mi ENE 5.8 mph - N/A   Clear
5:35 PM 64.4 °F - 8.6 °F 11% 30.39 in 10.0 mi SE 6.9 mph - N/A   Clear
5:55 PM 62.6 °F - 14.0 °F 15% 30.39 in 10.0 mi ESE 8.1 mph - N/A   Clear
6:15 PM 62.6 °F - 14.0 °F 15% 30.39 in 10.0 mi East 9.2 mph - N/A   Clear
6:35 PM 60.8 °F - 14.0 °F 16% 30.39 in 10.0 mi East 9.2 mph - N/A   Clear
6:55 PM 57.2 °F - 17.6 °F 21% 30.39 in 10.0 mi East 6.9 mph - N/A   Clear
7:15 PM 55.4 °F - 14.0 °F 20% 30.39 in 10.0 mi ENE 6.9 mph - N/A   Clear
7:35 PM 55.4 °F - 14.0 °F 20% 30.40 in 10.0 mi East 6.9 mph - N/A   Clear
7:55 PM 55.4 °F - 14.0 °F 20% 30.40 in 10.0 mi SE 4.6 mph - N/A   Clear
8:15 PM 53.6 °F - 14.0 °F 21% 30.41 in 10.0 mi Calm Calm - N/A   Clear
8:35 PM 50.0 °F - 14.0 °F 24% 30.42 in 10.0 mi Calm Calm - N/A   Clear
8:55 PM 46.4 °F - 12.2 °F 25% 30.42 in 10.0 mi Calm Calm - N/A   Clear
9:15 PM 46.4 °F - 12.2 °F 25% 30.43 in 10.0 mi Calm Calm - N/A   Clear
9:35 PM 39.2 °F 37.0 °F 12.2 °F 33% 30.44 in 10.0 mi North 3.5 mph - N/A   Clear
9:55 PM 39.2 °F 37.0 °F 12.2 °F 33% 30.44 in 10.0 mi NNW 3.5 mph - N/A   Clear
10:15 PM 35.6 °F 31.7 °F 12.2 °F 38% 30.44 in 10.0 mi North 4.6 mph - N/A   Clear
10:35 PM 35.6 °F 31.7 °F 14.0 °F 41% 30.45 in 10.0 mi NNW 4.6 mph - N/A   Clear
10:55 PM 35.6 °F 29.9 °F 14.0 °F 41% 30.45 in 10.0 mi North 6.9 mph - N/A   Clear
11:15 PM 33.8 °F 29.6 °F 14.0 °F 44% 30.45 in 10.0 mi NNW 4.6 mph - N/A   Clear
11:35 PM 35.6 °F 32.8 °F 14.0 °F 41% 30.45 in 10.0 mi NNW 3.5 mph - N/A   Clear
11:55 PM 33.8 °F - 14.0 °F 44% 30.45 in 10.0 mi Calm Calm - N/A   Clear